[[{"header":{"parameterUnit":"m.s-1","parameterCategory":1,"la1":30.2991,"la2":30.254,"lo1":-89.0895,"lo2":-89.0444,"dy":0.0017,"dx":0.0017,"nx":28,"ny":28,"refTime":"2023-09-01T03:00:00:Z","depth":0,"parameterNumber":2,"parameterNumberName":"U-component_of_WINDS"},"data":[0,0,0,0,0,0,0,0,0,0,0,0,0,0,0,0,0,0,0,0,0,0,0,0,0,0,0,0,0,0,0,0,0,0,0,0,0,0,0,0,0,0,0,0,0,0,0,0,0,0,0,0,0,0,0,0,0,0,1.3792,1.3794,0,1.3905,1.3907,1.3908,1.398,1.398,1.3981,1.3981,1.4092,1.4095,1.4097,0,0,0,0,0,0,0,0,0,0,0,0,0,1.3632,1.3635,1.3792,1.3794,1.3795,1.3905,1.3907,1.3908,1.398,1.398,1.3981,1.3981,1.4091,1.4094,1.4097,0,0,0,0,0,0,0,0,0,0,0,0,0,1.3719,1.3636,1.3792,1.3844,1.385,1.3905,1.3907,1.3909,1.398,1.398,1.3981,1.3982,1.409,1.4094,1.4098,1.4108,0,0,1.411,1.4111,0,0,0,0,0,0,0,0,1.3714,1.3725,1.3835,1.3841,1.3847,1.3929,1.3891,1.3975,1.3979,1.393,1.3981,1.3982,1.4037,1.4045,1.4065,1.4114,1.4118,1.411,1.4112,1.4114,1.4115,0,0,0,0,0,0,0,1.3708,1.372,1.3837,1.3837,1.3844,1.386,1.3873,1.3907,1.3978,1.3935,1.394,1.3953,1.4041,1.4061,1.4068,1.412,1.411,1.4113,1.4116,1.4117,1.418,1.4179,0,0,0,0,0,0,1.3694,1.3715,1.3833,1.384,1.3781,1.3862,1.3877,1.3902,1.3978,1.3991,1.3952,1.3956,1.4054,1.4064,1.4072,1.4088,1.4114,1.4117,1.412,1.418,1.4179,1.4179,0,0,0,0,0,0,1.3691,1.3704,1.3829,1.3779,1.3796,1.3864,1.3892,1.3904,1.3925,1.3992,1.4004,1.396,1.4055,1.4067,1.4099,1.4092,1.4119,1.4123,1.4181,1.418,1.4179,1.4119,0,0,0,0,0,0,1.3686,1.3703,1.3709,1.3779,1.3799,1.3855,1.3892,1.3906,1.3932,1.3938,1.4003,1.4014,1.4057,1.4092,1.4102,1.4098,1.4126,1.4182,1.4181,1.4179,1.4122,1.4116,1.4111,0,0,0,0,0,1.368,1.3687,1.3709,1.3723,1.3808,1.3854,1.3865,1.3915,1.3931,1.3937,1.3979,1.4012,1.4092,1.4095,1.4107,1.4104,1.4182,1.4181,1.418,1.4124,1.4117,1.4111,0,0,0,0,0,0,1.3613,1.3697,1.3722,1.3753,1.3796,1.3866,1.3875,1.3907,1.3945,1.3949,1.4008,1.4022,1.4047,1.4079,1.4081,1.4116,1.4141,1.4142,1.4095,1.4089,1.4083,1.4074,1.4129,0,0,0,0,0,1.3603,1.3635,1.3706,1.3725,1.3746,1.3806,1.3828,1.3863,1.391,1.3928,1.3973,1.4015,1.405,1.4071,1.4107,1.4127,1.4141,1.413,1.4125,1.4121,1.412,1.413,1.4125,1.4174,1.4174,1.4174,0,0,1.358,1.363,1.3646,1.3713,1.3751,1.378,1.3821,1.3852,1.3874,1.3932,1.3965,1.3999,1.405,1.4075,1.4088,1.4102,1.411,1.4119,1.4114,1.4117,1.4128,1.4123,1.4119,1.4173,1.4173,1.4173,0,0,1.3554,1.3596,1.3616,1.3652,1.3709,1.3749,1.3753,1.3819,1.3844,1.3878,1.3921,1.3947,1.4006,1.404,1.4065,1.4049,1.4079,1.4059,1.4031,1.404,1.4036,1.4033,1.4024,1.4021,1.4058,1.4058,1.4058,0,1.3518,1.3566,1.3621,1.3649,1.3676,1.3731,1.375,1.3782,1.3847,1.3863,1.3878,1.3952,1.399,1.4023,1.4018,1.4038,1.4042,1.4051,1.4032,1.403,1.4027,1.402,1.4017,1.4055,1.4056,1.4056,1.4056,0,1.3518,1.3551,1.356,1.3621,1.3649,1.3672,1.3729,1.375,1.3782,1.3819,1.3851,1.3899,1.3944,1.3955,1.3986,1.3991,1.3997,1.4021,1.4047,1.4019,1.4012,1.401,1.4051,1.4052,1.4053,1.4054,0,0,1.3453,1.3544,1.3546,1.3574,1.364,1.3665,1.3689,1.3734,1.375,1.3792,1.3812,1.386,1.3882,1.391,1.3945,1.3953,1.3934,1.3977,1.3979,1.3965,1.3939,1.3918,1.3914,1.3955,1.3955,1.3955,1.3933,0,1.3435,1.3483,1.3532,1.3562,1.3591,1.3643,1.3664,1.3704,1.374,1.3768,1.3806,1.3838,1.3867,1.3883,1.3894,1.3934,1.3929,1.3937,1.3972,1.3972,1.3955,1.3912,1.3891,1.3868,1.3932,1.3931,1.3931,0,1.342,1.346,1.3493,1.3554,1.3568,1.3586,1.3629,1.3657,1.3703,1.3728,1.3758,1.3795,1.3821,1.3844,1.3878,1.3882,1.3899,1.392,1.3921,1.3924,1.3948,1.3911,1.3862,1.3858,1.3928,1.3929,1.3929,0,1.3366,1.3429,1.3456,1.3478,1.355,1.3561,1.3591,1.3638,1.3661,1.3699,1.3714,1.3754,1.3775,1.3804,1.385,1.3863,1.3877,1.3905,1.3896,1.3895,1.3895,1.3894,1.3846,1.391,1.391,1.391,1.391,0,1.334,1.3357,1.3432,1.3448,1.3468,1.3523,1.3541,1.3575,1.3617,1.3638,1.3686,1.3705,1.3766,1.3791,1.3828,1.3848,1.3858,1.3877,1.3886,1.3871,1.3868,1.3882,1.3883,1.391,1.391,1.391,1.391,0,1.3283,1.3334,1.3366,1.3432,1.3449,1.346,1.3515,1.3531,1.3569,1.3595,1.3605,1.3663,1.3695,1.3745,1.3792,1.3816,1.3829,1.3846,1.3814,1.3819,1.3806,1.3805,1.3762,1.3758,1.3827,1.3826,1.3826,0,1.3261,1.3276,1.3343,1.3361,1.339,1.342,1.3443,1.3497,1.352,1.3572,1.3581,1.3617,1.3649,1.3698,1.3743,1.3778,1.3794,1.3777,1.3799,1.3783,1.379,1.3788,1.3788,1.377,1.3769,1.3768,1.3768,0,1.3217,1.3241,1.3275,1.3315,1.3342,1.3377,1.3414,1.3426,1.3488,1.351,1.3544,1.3568,1.3616,1.365,1.3691,1.372,1.3752,1.376,1.376,1.3744,1.3723,1.3731,1.3796,1.3761,1.3761,1.3762,1.3762,1.3763,1.3176,1.319,1.3238,1.3272,1.3306,1.3339,1.3356,1.3396,1.3426,1.3469,1.3499,1.353,1.3574,1.3632,1.3659,1.3683,1.3697,1.3697,1.3696,1.3695,1.3688,1.3721,1.3691,1.3691,1.3691,1.3692,1.3692,0,1.3131,1.3165,1.3196,1.3246,1.3272,1.3303,1.3344,1.3363,1.339,1.3429,1.3459,1.3496,1.3529,1.3576,1.3612,1.3621,1.3637,1.3628,1.3627,1.3632,1.3675,1.367,1.3615,1.3615,1.3615,1.3615,1.3615,1.3615,1.3111,1.3136,1.3165,1.3205,1.3238,1.327,1.3291,1.332,1.3351,1.339,1.3418,1.3449,1.349,1.3529,1.3559,1.3572,1.3581,1.3567,1.3584,1.3622,1.3629,1.3636,1.3632,1.357,1.3569,1.3539,1.3539,1.3539]},{"header":{"parameterUnit":"m.s-1","parameterCategory":1,"la1":30.2991,"la2":30.254,"lo1":-89.0895,"lo2":-89.0444,"dy":0.0017,"dx":0.0017,"nx":28,"ny":28,"refTime":"2023-09-01T03:00:00:Z","depth":0,"parameterNumber":3,"parameterNumberName":"V-component_of_WINDS"},"data":[0,0,0,0,0,0,0,0,0,0,0,0,0,0,0,0,0,0,0,0,0,0,0,0,0,0,0,0,0,0,0,0,0,0,0,0,0,0,0,0,0,0,0,0,0,0,0,0,0,0,0,0,0,0,0,0,0,0,2.229,2.229,0,2.227,2.227,2.2269,2.2242,2.2242,2.2242,2.2241,2.222,2.222,2.2219,0,0,0,0,0,0,0,0,0,0,0,0,0,2.2305,2.2305,2.229,2.229,2.229,2.227,2.227,2.2269,2.2243,2.2242,2.2241,2.2241,2.222,2.222,2.2219,0,0,0,0,0,0,0,0,0,0,0,0,0,2.2293,2.2305,2.229,2.2274,2.2272,2.227,2.227,2.2269,2.2243,2.2242,2.2241,2.2241,2.222,2.222,2.2219,2.2231,0,0,2.2219,2.2219,0,0,0,0,0,0,0,0,2.2294,2.2293,2.2277,2.2275,2.2273,2.2258,2.2267,2.2257,2.2243,2.2254,2.2241,2.224,2.2233,2.2232,2.2229,2.223,2.2229,2.2219,2.2218,2.2218,2.2218,0,0,0,0,0,0,0,2.2295,2.2293,2.2282,2.2276,2.2274,2.2268,2.2265,2.2265,2.2247,2.2253,2.2251,2.2249,2.2232,2.223,2.2229,2.2229,2.2219,2.2218,2.2218,2.2218,2.2238,2.2239,0,0,0,0,0,0,2.2298,2.2294,2.2283,2.2281,2.2282,2.2268,2.2265,2.2264,2.2247,2.2244,2.2249,2.2248,2.223,2.2229,2.2228,2.224,2.2218,2.2218,2.2218,2.2238,2.2238,2.2239,0,0,0,0,0,0,2.2299,2.2297,2.2284,2.2287,2.2285,2.2268,2.2267,2.2264,2.2261,2.2245,2.2241,2.225,2.223,2.2228,2.223,2.2238,2.2218,2.2218,2.2237,2.2238,2.2239,2.2264,0,0,0,0,0,0,2.2299,2.2298,2.2302,2.2288,2.2285,2.2287,2.2267,2.2264,2.2261,2.2258,2.2245,2.2242,2.2229,2.2231,2.223,2.2238,2.2218,2.2236,2.2237,2.2238,2.2262,2.2266,2.2269,0,0,0,0,0,2.23,2.231,2.2302,2.2301,2.229,2.2287,2.2286,2.2271,2.2262,2.2266,2.2255,2.2242,2.2238,2.2231,2.223,2.2238,2.2235,2.2237,2.2238,2.2261,2.2265,2.2269,0,0,0,0,0,0,2.2325,2.2308,2.2299,2.2305,2.2298,2.2283,2.2287,2.2276,2.2271,2.2269,2.2251,2.2248,2.2253,2.2246,2.2239,2.2248,2.2235,2.2236,2.2252,2.2256,2.2259,2.226,2.2217,0,0,0,0,0,2.2332,2.2331,2.2316,2.2322,2.2319,2.2304,2.2302,2.2292,2.2284,2.228,2.227,2.2263,2.226,2.2258,2.2254,2.2262,2.2258,2.2267,2.227,2.2273,2.2273,2.2276,2.228,2.2244,2.2244,2.2244,0,0,2.2344,2.2335,2.2335,2.2327,2.232,2.232,2.2302,2.2302,2.2301,2.228,2.2282,2.2274,2.2265,2.227,2.2271,2.2264,2.2283,2.2275,2.2277,2.2276,2.2278,2.2282,2.2285,2.2245,2.2245,2.2245,0,0,2.2367,2.236,2.2365,2.2359,2.2349,2.2339,2.234,2.2327,2.2321,2.2322,2.2307,2.2306,2.2301,2.2295,2.2291,2.2313,2.23,2.2312,2.2328,2.2331,2.2333,2.2336,2.2342,2.2345,2.2313,2.2313,2.2313,0,2.2384,2.2383,2.2368,2.2369,2.2366,2.2348,2.2352,2.2347,2.2337,2.2334,2.2327,2.2321,2.2313,2.2316,2.2321,2.2319,2.2319,2.2312,2.2334,2.2337,2.2339,2.2344,2.2347,2.2315,2.2315,2.2314,2.2314,0,2.2403,2.2403,2.2408,2.2398,2.2396,2.2398,2.2384,2.2383,2.2374,2.2365,2.2366,2.2357,2.235,2.2351,2.2341,2.2352,2.2348,2.2338,2.2323,2.2344,2.2349,2.2351,2.2317,2.2316,2.2316,2.2316,0,0,2.2439,2.2423,2.2425,2.242,2.2409,2.2408,2.241,2.2404,2.2403,2.2397,2.2398,2.2395,2.2386,2.2381,2.2371,2.2374,2.239,2.2363,2.2363,2.2367,2.2401,2.2407,2.241,2.2383,2.2383,2.2384,2.2401,0,2.2459,2.2461,2.2448,2.2454,2.2453,2.2437,2.2438,2.2431,2.2423,2.2421,2.2412,2.241,2.2398,2.2395,2.2398,2.2388,2.2396,2.2387,2.2382,2.2382,2.2383,2.2413,2.242,2.2436,2.2403,2.2403,2.2404,0,2.2481,2.2476,2.2481,2.247,2.2469,2.247,2.2464,2.2463,2.2455,2.2449,2.2444,2.2433,2.2434,2.2422,2.2422,2.2416,2.2414,2.2409,2.2409,2.2407,2.2393,2.241,2.2441,2.2443,2.2407,2.2407,2.2407,0,2.2505,2.25,2.2502,2.2499,2.2486,2.2487,2.2482,2.2473,2.2471,2.2466,2.2464,2.2459,2.2456,2.2452,2.244,2.2432,2.2441,2.2428,2.2435,2.2436,2.2436,2.2436,2.2467,2.2438,2.2438,2.2438,2.2438,0,2.2526,2.253,2.2513,2.2514,2.2517,2.2504,2.2508,2.2501,2.2493,2.2493,2.2479,2.2479,2.2463,2.2461,2.2452,2.2453,2.2452,2.2447,2.2444,2.2447,2.2447,2.2443,2.2441,2.2439,2.2439,2.2438,2.2438,0,2.2552,2.2541,2.2543,2.2531,2.2528,2.2531,2.252,2.2521,2.2512,2.2512,2.2511,2.2498,2.2495,2.2482,2.2476,2.247,2.2474,2.2469,2.2476,2.2474,2.2481,2.248,2.2509,2.2512,2.2483,2.2484,2.2484,0,2.2566,2.2568,2.2557,2.2555,2.2551,2.2549,2.2546,2.2534,2.2531,2.2523,2.2524,2.252,2.2516,2.2512,2.2502,2.2497,2.2491,2.2502,2.249,2.2493,2.2489,2.2489,2.2488,2.2503,2.2504,2.2504,2.2504,0,2.259,2.2585,2.2582,2.2577,2.2575,2.257,2.2565,2.2565,2.2551,2.2549,2.2546,2.2543,2.2537,2.2533,2.2527,2.2521,2.251,2.2509,2.251,2.2512,2.2515,2.2512,2.2481,2.2507,2.2507,2.2507,2.2507,2.2507,2.2609,2.2611,2.2603,2.26,2.2595,2.259,2.259,2.2582,2.2579,2.2574,2.2567,2.2564,2.2556,2.2547,2.2542,2.254,2.2534,2.2536,2.2536,2.2536,2.2537,2.2517,2.2539,2.2539,2.2539,2.2539,2.2539,0,2.2632,2.2626,2.2624,2.2617,2.2615,2.2607,2.26,2.2599,2.2597,2.2591,2.2588,2.2584,2.258,2.257,2.2565,2.2565,2.256,2.2564,2.2563,2.2562,2.2544,2.2542,2.2568,2.2568,2.2568,2.2568,2.2568,2.2568,2.2643,2.2645,2.2638,2.2637,2.2632,2.2629,2.2626,2.2622,2.2617,2.2614,2.2611,2.2605,2.2597,2.2591,2.2587,2.2584,2.2583,2.2588,2.2583,2.2566,2.2563,2.256,2.2559,2.2588,2.2588,2.2601,2.2602,2.2602]}]]